GW5208 Weather Reports


Display with metric or nautical units.
time (UTC)temp
F
wind
direction
speed
MPH
gust
MPH
rain 1hr
in
rain 24hr
in
rain mn
in
humidity
%
barometer
mb
20260509120024 52 287 1.0 4.0 0.00 0.00 0.00 64 1016.0
20260509114533 53 315 1.0 6.0 0.00 0.00 0.00 65 1015.7
20260509113027 53 292 4.0 7.0 0.00 0.00 0.00 65 1015.6
20260509111514 53 276 3.0 6.0 0.00 0.00 0.00 64 1015.5
20260509110020 53 274 4.0 9.0 0.00 0.00 0.00 64 1015.5
20260509104523 53 255 1.0 6.0 0.00 0.00 0.00 64 1015.5
20260509103027 54 279 3.0 7.0 0.00 0.00 0.00 62 1015.4
20260509101530 54 265 3.0 9.0 0.00 0.00 0.00 62 1015.1
20260509100017 54 285 4.0 7.0 0.00 0.00 0.00 63 1014.8
20260509094529 54 314 4.0 9.0 0.00 0.00 0.00 63 1014.6
20260509093028 54 301 4.0 11.0 0.00 0.00 0.00 63 1014.4
20260509091529 54 288 5.0 11.0 0.00 0.00 0.00 62 1014.3
20260509090016 54 277 6.0 12.0 0.00 0.00 0.00 61 1014.3
20260509084519 54 277 5.0 9.0 0.00 0.00 0.00 61 1014.1
20260509083026 54 271 3.0 7.0 0.00 0.00 0.00 60 1014.0
20260509081543 55 282 2.0 8.0 0.00 0.00 0.00 58 1014.1
20260509080028 55 257 2.0 6.0 0.00 0.00 0.00 58 1013.9
20260509074520 55 268 3.0 7.0 0.00 0.00 0.00 59 1014.0
20260509073010 55 288 4.0 9.0 0.00 0.00 0.00 59 1013.9
20260509071509 55 281 4.0 8.0 0.00 0.00 0.00 58 1013.7
20260509070027 55 300 4.0 9.0 0.00 0.00 0.00 58 1013.5
20260509064520 55 308 4.0 11.0 0.00 0.00 0.00 59 1013.5
20260509063044 56 257 6.0 12.0 0.00 0.00 0.00 58 1013.3
20260509061505 56 262 7.0 14.0 0.00 0.00 0.00 56 1013.0
20260509060010 57 291 7.0 17.0 0.00 0.00 0.00 54 1012.9
20260509054515 57 290 9.0 17.0 0.00 0.00 0.00 53 1012.5
20260509053022 58 276 8.0 13.0 0.00 0.00 0.00 53 1012.6
20260509051525 58 294 6.0 12.0 0.00 0.00 0.00 53 1012.6
20260509050008 59 305 6.0 12.0 0.00 0.00 0.00 51 1012.5
20260509044513 60 277 6.0 14.0 0.00 0.00 0.00 49 1012.2
20260509043015 60 297 7.0 12.0 0.00 0.00 0.00 47 1012.1
20260509041522 62 285 6.0 12.0 0.00 0.00 0.00 44 1012.0
20260509040027 62 264 6.0 11.0 0.00 0.00 0.00 41 1011.8
20260509034511 63 281 5.0 12.0 0.00 0.00 0.00 37 1011.7
20260509033016 65 296 3.0 5.0 0.00 0.00 0.00 27 1011.3
20260509031522 65 266 3.0 10.0 0.00 0.00 0.00 27 1010.8
20260509030026 65 223 1.0 5.0 0.00 0.00 0.00 28 1010.8
20260509024526 66 158 1.0 14.0 0.00 0.00 0.00 28 1010.4
20260509023014 67 286 12.0 18.0 0.00 0.00 0.00 25 1010.5
20260509021520 68 5 3.0 7.0 0.00 0.00 0.00 21 1010.1
20260509020036 69 325 1.0 4.0 0.00 0.00 0.00 20 1009.9
20260509014541 70 18 3.0 6.0 0.00 0.00 0.00 19 1009.6
20260509013012 70 32 2.0 9.0 0.00 0.00 0.00 19 1009.4
20260509011520 71 39 4.0 10.0 0.00 0.00 0.00 18 1009.4
20260509010003 71 359 4.0 12.0 0.00 0.00 0.00 18 1009.4
20260509004514 71 359 3.0 9.0 0.00 0.00 0.00 17 1009.3
20260509003027 72 353 4.0 11.0 0.00 0.00 0.00 17 1009.3
20260509001518 72 342 7.0 11.0 0.00 0.00 0.00 17 1009.4
20260509000004 73 338 7.0 14.0 0.00 0.00 0.00 17 1009.4
20260508234503 73 335 7.0 15.0 0.00 0.00 0.00 17 1009.3
20260508233008 74 354 5.0 14.0 0.00 0.00 0.00 17 1009.2
20260508231514 75 333 8.0 16.0 0.00 0.00 0.00 17 1009.1
20260508230020 76 1 9.0 17.0 0.00 0.00 0.00 17 1009.2
20260508224503 77 242 7.0 14.0 0.00 0.00 0.00 17 1009.4
20260508223010 76 337 9.0 13.0 0.00 0.00 0.00 17 1009.3
20260508221512 76 359 6.0 14.0 0.00 0.00 0.00 17 1009.3
20260508220018 76 251 7.0 19.0 0.00 0.00 0.00 18 1009.4
20260508214522 77 283 8.0 15.0 0.00 0.00 0.00 18 1009.5
20260508213006 76 300 7.0 15.0 0.00 0.00 0.00 18 1009.6
20260508211516 76 276 8.0 15.0 0.00 0.00 0.00 19 1009.6
20260508210018 75 256 7.0 24.0 0.00 0.00 0.00 19 1009.6
20260508204520 75 279 8.0 16.0 0.00 0.00 0.00 19 1009.6
20260508203025 75 316 7.0 18.0 0.00 0.00 0.00 19 1009.8
20260508201511 75 277 8.0 19.0 0.00 0.00 0.00 18 1010.0
20260508200022 75 249 5.0 22.0 0.00 0.00 0.00 20 1010.0
20260508194520 74 270 6.0 15.0 0.00 0.00 0.00 21 1010.2
20260508193024 74 276 9.0 15.0 0.00 0.00 0.00 20 1010.3
20260508191521 74 281 5.0 16.0 0.00 0.00 0.00 18 1010.4
20260508190022 73 293 7.0 19.0 0.00 0.00 0.00 19 1010.5
20260508184520 72 300 5.0 13.0 0.00 0.00 0.00 23 1010.6
20260508183023 72 265 8.0 17.0 0.00 0.00 0.00 25 1010.8
20260508181534 73 276 9.0 15.0 0.00 0.00 0.00 26 1010.9
20260508180012 71 302 6.0 13.0 0.00 0.00 0.00 1011.3
20260508174518 70 255 6.0 11.0 0.00 0.00 0.00 1011.5
20260508173024 69 271 4.0 9.0 0.00 0.00 0.00 30 1011.6
20260508171526 68 359 4.0 10.0 0.00 0.00 0.00 33 1011.8
20260508170027 66 287 4.0 8.0 0.00 0.00 0.00 38 1011.8
20260508164514 65 345 3.0 8.0 0.00 0.00 0.00 39 1011.9
20260508163020 65 269 5.0 9.0 0.00 0.00 0.00 40 1012.1
20260508161530 64 258 4.0 7.0 0.00 0.00 0.00 43 1012.3
20260508160008 62 240 2.0 9.0 0.00 0.00 0.00 49 1012.5
20260508154516 61 269 4.0 8.0 0.00 0.00 0.00 50 1012.5
20260508153020 60 270 2.0 7.0 0.00 0.00 0.00 51 1012.7
20260508151505 58 288 3.0 6.0 0.00 0.00 0.00 57 1012.8
20260508150010 56 248 1.0 6.0 0.00 0.00 0.00 61 1013.0
20260508144512 54 271 2.0 5.0 0.00 0.00 0.00 64 1013.1
20260508143016 52 276 2.0 4.0 0.00 0.00 0.00 67 1013.2
20260508141531 51 264 2.0 5.0 0.00 0.00 0.00 70 1013.3
20260508140008 49 173 0.0 2.0 0.00 0.00 0.00 72 1013.4
20260508134514 48 173 1.0 2.0 0.00 0.00 0.00 75 1013.4
20260508133015 46 356 0.0 0.0 0.00 0.00 0.00 78 1013.6
20260508131518 44 356 0.0 0.0 0.00 0.00 0.00 77 1013.5
20260508130028 43 356 0.0 0.0 0.00 0.00 0.00 75 1013.3
20260508124507 43 356 0.0 0.0 0.00 0.00 0.00 74 1013.4
20260508123026 41 356 0.0 0.0 0.00 0.00 0.00 83 1013.3
20260508121517 39 356 0.0 0.0 0.00 0.00 0.00 81 1013.2